GFSCGP_500_rhum_093.txt.gz
RH
30 25 28 34 38 39 45 49 37 42 49 69 60 61 45 53 62 46 64 68 94 90 75 90 30 37 33 22 15 16 7 14 8 9 10 15 23 28 31 52 73 61 35 18
29 25 29 27 28 29 31 33 34 34 45 57 56 55 49 59 54 69 81 85 83 81 56 34 24 22 20 20 14 13 6 10 8 9 10 15 26 34 42 64 77 52 26 20
30 25 22 20 19 18 18 20 21 22 24 26 35 37 44 46 84 98 89 87 75 87 71 81 79 24 15 14 10 8 9 8 7 10 10 16 22 32 56 74 77 39 22 19
24 20 18 16 15 13 13 20 17 14 13 14 34 23 34 49 69 92 99 89 97 76 70 64 85 49 46 32 11 9 9 9 8 8 10 15 23 34 70 73 72 33 21 18
20 18 17 14 12 11 9 9 9 10 12 16 18 45 33 57 86 98 84 59 77 85 84 54 39 38 14 10 9 9 8 8 8 8 10 20 27 36 75 77 69 30 21 20
19 14 13 11 10 10 11 9 8 8 12 14 39 54 33 61 77 88 80 99 89 67 60 61 40 42 24 10 11 11 11 10 9 9 11 21 31 50 69 85 71 25 21 22
14 14 15 14 13 15 23 28 26 18 11 13 52 46 69 75 64 72 96 78 99 86 58 75 25 17 14 11 11 35 12 10 10 12 15 28 44 64 70 93 79 26 22 24
11 9 16 28 18 67 35 86 60 42 27 36 52 39 73 96 97 84 85 93 99 98 83 36 19 19 14 13 13 16 34 17 35 35 29 42 50 76 76 90 75 24 25 25
10 7 10 18 22 39 51 44 73 100 82 72 51 62 66 92 98 97 99 100 93 95 37 25 23 16 14 13 22 13 8 10 41 96 64 55 61 80 88 90 65 23 28 26
9 7 8 21 33 30 52 80 77 81 82 88 61 77 91 80 96 98 96 93 89 90 40 23 31 21 15 14 28 50 92 95 87 99 99 59 73 79 84 96 49 23 30 27
5 7 4 14 17 26 78 100 83 58 87 69 73 100 98 91 98 100 98 96 78 68 42 36 44 36 32 36 44 51 93 88 97 98 82 59 68 80 91 93 44 26 29 26
17 22 11 13 8 17 82 100 100 78 76 96 100 89 100 100 99 99 99 100 92 92 91 34 38 51 52 60 52 67 91 90 98 97 71 50 66 87 96 96 55 30 26 25
29 50 57 26 13 46 35 90 100 92 90 89 100 98 94 100 93 99 95 94 91 60 50 38 41 51 55 55 59 66 77 73 76 62 51 49 67 96 97 92 75 40 26 24
30 36 38 36 63 32 24 72 100 100 97 84 100 100 98 100 96 100 100 99 91 74 72 72 50 46 59 63 68 66 63 58 54 76 59 45 82 98 99 90 84 59 38 41
26 26 30 28 40 92 30 61 100 90 99 96 99 100 100 99 100 83 100 94 82 76 83 80 76 72 66 68 74 80 78 54 38 37 56 90 95 99 99 98 99 98 60 43
25 21 22 27 24 56 100 98 99 100 99 98 100 100 97 98 100 87 88 80 69 60 44 36 57 72 76 72 77 89 88 84 78 85 94 93 98 97 96 98 96 100 94 72
27 24 24 24 33 98 88 100 100 100 100 100 100 92 100 99 94 79 64 54 53 73 60 44 29 63 82 76 80 98 82 80 99 98 96 99 97 98 98 98 95 100 100 100
22 26 49 38 56 93 99 100 100 100 100 100 100 99 91 82 77 66 56 44 32 50 49 62 49 65 83 86 78 97 98 96 95 94 95 98 97 95 98 97 92 95 100 100
34 58 99 65 64 100 99 100 92 98 100 100 82 70 60 56 61 56 46 32 29 36 40 95 97 95 90 97 89 94 98 100 99 99 89 96 99 98 96 97 92 90 96 95
95 100 100 100 100 100 97 90 83 60 65 87 71 58 51 55 48 45 44 27 22 21 30 94 98 99 100 100 100 100 99 89 100 87 78 91 82 99 92 90 97 94 94 95
97 100 100 100 97 100 100 100 70 49 65 66 64 63 62 54 44 40 38 27 18 18 20 68 100 100 99 100 100 100 98 98 100 98 97 73 98 96 98 95 92 94 90 87
94 98 100 100 100 100 98 94 98 83 79 74 76 69 61 54 50 47 41 36 23 20 32 59 83 100 95 97 100 100 98 97 98 94 91 93 80 80 82 98 91 96 96 100
100 100 100 100 99 94 80 72 90 100 97 79 57 50 48 48 48 49 45 30 19 20 46 84 86 87 93 98 99 99 98 98 98 100 98 98 100 100 97 98 98 98 97 98
100 100 100 100 100 90 100 95 73 57 37 25 34 36 32 30 34 41 44 33 29 25 34 54 80 93 100 100 99 98 99 98 99 99 97 98 98 98 98 98 98 98 98 100
100 100 100 100 100 84 72 83 37 25 22 21 23 32 30 27 36 37 40 28 46 95 98 78 84 100 100 100 100 100 99 98 98 98 97 98 99 99 99 99 100 99 99 99
94 97 92 94 90 86 46 35 30 33 34 34 23 18 18 30 41 40 68 72 92 100 100 100 99 94 89 90 97 96 100 100 100 100 100 100 99 99 99 100 100 100 99 98

GFSCGP_500_rhum_096.txt.gz
RH
48 39 39 34 30 26 25 23 21 22 36 49 33 31 13 21 25 24 33 39 38 50 48 55 65 72 78 75 67 58 52 36 17 12 36 38 25 27 21 13 14 16 22 30
41 36 34 30 28 27 26 23 21 20 26 42 28 17 20 22 30 37 39 37 38 61 65 68 85 57 75 80 49 48 49 34 18 13 36 46 16 12 19 11 15 21 38 51
37 36 33 30 28 25 22 21 20 18 17 16 16 11 12 14 23 26 29 32 41 60 79 87 83 67 59 65 84 47 46 27 14 12 20 51 66 38 10 12 22 28 53 62
35 33 28 25 23 18 20 21 18 16 13 10 10 7 6 8 12 26 36 40 39 56 95 91 89 94 50 55 44 49 54 14 13 9 16 55 24 14 15 20 22 24 66 69
27 25 24 23 20 18 17 13 12 10 9 7 7 25 5 5 20 48 44 42 74 86 93 97 94 88 78 58 40 35 32 13 10 9 12 20 17 12 18 20 19 40 73 63
34 30 28 22 20 15 13 12 12 10 10 10 6 17 4 22 52 62 71 93 99 98 96 99 100 96 56 83 81 84 82 49 10 21 12 22 23 13 18 17 21 62 77 58
28 26 20 17 16 15 14 12 12 15 19 16 23 19 6 12 84 79 80 87 99 98 98 99 94 100 64 44 41 26 28 35 10 17 29 19 20 19 23 18 22 71 80 55
27 24 15 14 13 12 15 19 12 30 35 23 31 21 23 42 86 98 97 97 98 98 99 97 92 90 70 44 51 38 27 73 74 61 55 46 35 20 29 23 24 74 79 47
17 15 11 9 9 10 10 30 61 93 49 41 50 66 69 65 77 83 87 99 98 96 99 94 80 74 35 36 47 21 35 74 88 97 86 72 74 63 35 28 37 72 74 37
9 8 7 6 8 23 20 26 57 79 73 48 42 53 77 82 77 96 93 98 98 96 93 95 45 51 45 59 57 43 49 86 94 83 82 81 71 85 39 47 67 75 75 26
3 3 4 4 5 10 58 91 90 78 65 52 46 61 79 96 100 100 100 98 97 95 96 95 50 27 51 41 57 60 60 76 96 97 97 90 93 90 49 55 72 81 63 23
5 6 4 6 8 6 38 47 100 84 99 72 63 48 84 97 99 100 100 99 99 99 100 92 56 39 36 42 52 75 74 71 74 94 97 96 97 95 90 61 75 80 44 24
12 12 12 10 16 18 18 40 21 47 100 88 90 74 98 100 100 100 100 99 99 100 100 94 71 47 48 57 47 54 60 62 67 73 88 96 97 89 79 75 88 89 59 34
10 13 18 15 13 45 100 30 28 36 95 94 93 100 99 99 99 100 98 92 81 78 94 93 85 47 36 32 41 54 54 52 54 68 94 97 95 73 69 80 98 82 55 49
9 10 20 17 18 21 74 61 43 36 74 97 100 100 98 100 99 100 100 90 76 79 77 74 64 52 34 38 48 52 47 50 70 68 72 90 91 67 70 93 90 96 74 59
10 11 23 19 22 20 52 72 56 38 91 82 100 100 100 100 100 100 100 83 78 69 60 56 58 69 75 43 42 54 57 56 63 64 63 67 85 56 57 87 85 96 86 68
9 19 32 14 23 26 28 64 48 29 87 100 100 100 98 99 99 95 99 77 62 56 53 41 31 21 33 61 60 57 57 58 70 74 80 78 58 72 92 98 89 97 89 92
26 25 21 50 64 24 56 86 98 88 95 99 100 100 100 100 83 76 79 67 52 47 40 37 40 25 30 45 70 67 59 65 90 86 78 79 85 96 97 97 97 98 99 90
24 46 96 74 68 85 100 87 98 100 100 100 100 99 99 94 81 75 66 55 44 32 29 28 37 36 56 62 77 78 70 68 80 87 93 92 93 99 95 98 96 97 98 96
74 100 100 95 95 100 100 100 100 100 100 100 96 99 80 70 59 50 48 47 44 27 24 23 22 76 87 81 84 100 88 84 96 97 89 78 90 93 98 95 98 97 91 94
100 95 100 100 100 100 100 100 100 99 78 73 88 68 55 50 50 45 43 42 44 35 20 18 22 48 90 86 95 89 90 95 99 90 92 91 92 99 97 77 96 99 98 99
100 100 100 100 96 100 100 100 100 100 70 61 71 66 55 48 43 44 43 43 41 39 28 18 33 57 89 89 88 93 99 100 98 98 96 95 97 99 90 79 89 98 94 98
98 100 100 100 100 100 100 99 92 79 69 81 76 76 71 58 47 46 45 45 44 38 35 23 43 87 73 81 94 91 89 89 94 93 98 99 98 93 98 98 100 99 98 100
100 100 100 100 98 94 89 89 85 93 93 74 64 46 40 37 30 30 37 42 44 44 36 22 32 52 79 92 96 97 100 96 98 93 93 97 98 98 95 96 98 98 99 99
100 100 100 91 86 87 94 90 75 56 27 20 21 35 34 30 25 25 29 38 39 31 36 62 76 91 97 98 100 100 100 100 100 100 100 99 100 100 99 97 96 100 97 96
74 77 94 100 99 90 72 88 55 27 23 22 26 22 24 23 19 23 33 47 68 92 82 90 100 100 100 100 100 99 100 100 100 100 100 100 99 97 98 100 100 100 100 100

GFSCGP_500_rhum_102.txt.gz
RH
57 49 48 69 60 61 60 58 56 57 52 48 44 40 33 30 27 27 27 23 18 16 15 16 17 23 30 34 40 47 48 47 57 66 77 75 91 92 93 70 51 82 33 25
37 34 56 53 54 54 50 52 53 48 40 39 33 29 25 28 27 25 22 18 16 14 12 12 13 13 17 20 25 28 24 28 36 49 69 78 89 91 81 66 64 74 61 30
47 61 66 64 66 61 59 53 48 42 35 32 29 24 24 22 21 20 19 16 15 13 12 10 9 9 10 14 28 32 32 30 32 49 70 69 79 80 66 73 70 47 53 48
59 89 83 83 74 64 58 45 40 36 32 30 25 23 21 20 19 18 17 16 15 13 12 12 9 8 7 7 10 22 34 28 34 61 52 65 79 76 89 71 78 36 63 92
84 87 88 85 70 57 51 38 31 30 27 26 25 24 21 20 20 19 17 14 11 10 8 8 7 6 6 6 7 24 32 35 46 64 73 76 72 66 59 44 85 49 89 96
98 96 92 91 68 46 34 32 26 24 26 34 27 24 19 18 17 14 11 8 7 6 5 5 5 5 5 9 20 35 46 60 70 85 84 56 39 40 44 22 52 72 80 97
95 85 77 58 42 47 65 66 34 29 27 27 23 20 19 16 12 9 8 6 6 7 7 8 17 32 49 48 76 71 77 87 84 91 49 44 38 32 60 67 65 85 79 98
99 92 97 97 92 57 52 33 20 23 24 22 18 16 12 10 8 7 5 5 8 16 20 22 31 70 80 96 97 96 99 90 92 87 87 68 56 53 37 30 32 77 100 98
100 98 92 93 65 38 24 20 18 17 15 13 12 9 8 8 8 7 8 12 27 23 35 46 50 85 84 91 91 97 100 98 100 96 81 60 89 76 61 56 51 95 86 79
98 90 64 45 26 23 19 16 12 10 9 7 5 5 5 5 7 8 21 26 39 69 74 96 83 83 93 92 92 99 100 98 96 91 72 56 54 87 84 61 60 90 91 97
38 34 33 25 16 12 8 7 6 5 4 4 4 4 4 13 13 19 27 34 46 81 99 100 100 95 91 97 86 91 100 98 98 97 70 93 84 80 64 73 80 85 94 97
22 25 20 14 11 7 4 4 4 4 4 4 4 3 4 7 9 43 53 77 93 97 100 99 99 100 100 99 63 88 92 97 98 97 93 95 96 81 83 93 65 96 98 96
17 17 14 9 7 4 4 4 4 4 5 4 7 4 4 24 34 43 70 100 100 100 99 100 99 98 99 98 56 49 72 98 98 98 98 98 97 97 96 98 96 96 98 96
17 10 4 4 4 4 4 5 8 7 6 7 7 7 8 42 100 74 98 100 99 100 100 100 100 99 90 92 90 52 56 86 95 98 97 98 98 96 96 96 95 98 97 98
5 4 4 4 5 5 5 7 11 10 10 9 8 10 10 48 85 97 100 100 100 100 99 100 96 96 91 92 98 82 64 79 81 96 97 96 83 66 83 96 100 98 97 98
4 5 5 4 6 7 8 10 9 10 17 14 10 9 11 26 94 100 100 100 100 100 93 92 72 79 79 81 87 88 81 65 83 76 72 69 56 52 70 98 98 97 97 97
5 6 6 5 7 8 7 13 14 19 22 14 10 44 19 45 98 100 100 100 100 84 82 61 54 48 43 38 48 80 79 62 60 90 73 58 44 44 54 74 63 95 93 98
7 9 8 10 19 13 16 56 71 61 53 51 60 33 21 58 100 99 100 100 95 78 64 52 43 39 38 42 56 43 42 60 52 55 65 56 50 79 84 64 88 94 82 70
9 13 23 19 17 56 98 100 99 100 100 100 100 58 33 97 100 98 100 100 74 51 53 47 41 33 29 29 37 60 41 37 67 63 65 84 93 80 79 71 96 90 80 68
37 58 76 46 85 98 88 99 100 100 100 100 100 100 100 100 100 100 100 73 52 55 52 46 37 32 29 28 25 43 63 62 76 83 100 100 95 97 98 100 98 97 86 73
100 84 66 86 96 100 100 76 100 100 100 100 100 100 100 100 99 84 63 45 40 41 43 41 34 30 25 25 24 23 63 74 72 82 80 95 98 100 98 98 98 98 98 95
98 100 100 100 100 100 92 81 100 100 100 100 100 99 100 100 100 94 57 49 45 44 44 41 39 37 32 25 23 20 23 56 70 78 79 91 96 95 91 93 95 99 99 97
97 100 100 100 100 100 100 100 100 100 96 96 99 96 99 89 69 55 47 39 37 35 39 42 43 40 36 34 28 21 26 36 63 70 74 83 85 80 98 100 100 100 99 98
100 100 100 100 100 100 100 100 100 100 98 72 71 73 68 56 47 41 37 34 34 38 40 40 42 44 44 39 32 28 24 32 63 80 78 80 88 89 91 98 89 95 99 91
100 99 100 100 100 100 100 100 100 100 95 60 39 39 38 36 28 26 25 26 29 35 37 54 69 65 54 51 52 46 38 37 68 86 94 87 87 89 98 94 88 94 94 91
99 98 100 99 100 100 100 90 99 93 38 35 28 23 22 22 22 21 20 18 20 22 27 36 53 86 99 98 89 79 86 81 86 93 100 100 98 96 96 94 95 98 100 100

GFSCGP_500_rhum_108.txt.gz
RH
32 22 11 20 17 42 17 9 8 24 43 33 33 31 39 47 48 50 49 50 52 50 47 45 42 38 35 33 36 38 41 42 45 50 48 42 40 44 41 42 57 82 80 89
46 48 38 28 35 25 16 9 12 27 52 49 48 41 40 44 47 46 46 42 40 39 37 34 32 29 28 27 27 27 28 31 37 41 40 45 49 51 53 39 34 44 66 83
35 76 79 82 52 29 20 14 20 38 50 59 54 39 45 50 53 52 46 42 37 33 29 27 25 23 22 21 21 20 19 18 17 15 16 18 18 19 20 24 41 48 62 66
77 95 90 79 86 58 36 63 64 63 79 75 43 46 33 44 46 42 38 35 32 29 26 23 22 20 18 17 17 16 16 15 14 14 14 14 14 12 13 16 27 39 64 71
96 84 85 78 73 100 87 85 87 82 78 74 69 63 53 47 43 38 34 31 29 26 24 22 21 20 20 19 18 18 18 17 17 15 14 12 11 10 12 12 16 28 44 53
90 91 92 85 96 100 100 100 100 100 100 87 70 67 53 50 48 49 43 37 33 29 25 23 26 23 18 15 14 12 11 10 9 8 8 9 10 9 9 9 10 27 39 49
97 99 100 100 100 100 100 100 87 69 73 69 66 64 56 50 47 48 42 29 25 22 20 17 15 13 11 9 7 5 4 3 3 3 4 4 4 6 7 7 8 20 26 40
100 100 100 99 99 97 100 100 100 100 100 100 68 58 60 58 59 49 33 25 19 14 12 11 9 8 7 4 4 3 3 3 4 5 4 4 5 4 4 5 11 18 22 40
100 100 96 100 100 93 96 99 98 93 93 91 83 74 68 56 43 33 24 18 13 8 6 6 5 4 4 3 3 3 7 11 23 27 46 49 26 29 13 12 15 29 34 35
100 100 100 100 100 100 100 99 99 100 100 97 74 49 38 38 32 21 14 10 8 7 6 5 4 3 3 3 4 17 49 52 46 47 77 93 85 85 59 55 52 84 82 64
100 100 99 100 100 100 100 99 100 100 86 40 28 31 28 22 14 9 7 7 8 7 6 4 4 3 3 10 42 59 80 78 94 97 98 98 100 100 100 92 79 100 96 79
100 100 100 99 100 100 100 80 39 20 14 14 12 15 14 11 8 7 7 6 6 5 4 3 3 4 29 50 76 89 87 98 96 99 94 95 98 99 98 94 91 98 97 78
100 100 99 94 80 87 74 24 13 12 11 11 9 12 8 7 5 6 5 4 3 3 3 2 6 65 63 88 98 100 99 97 96 96 95 95 92 94 98 94 87 100 100 86
100 95 88 71 72 26 12 12 10 8 8 6 8 6 6 6 4 4 3 3 3 3 2 10 49 86 91 99 100 100 97 93 90 96 95 91 99 97 98 98 97 97 96 95
96 94 69 21 12 11 11 10 7 6 5 6 6 5 4 4 4 3 3 4 3 3 8 99 100 99 100 98 98 98 97 98 87 70 95 97 86 82 96 97 97 96 97 98
67 31 16 13 12 11 10 7 6 5 5 4 4 3 5 5 5 7 7 6 6 11 100 100 100 100 100 98 96 99 99 100 90 68 77 100 100 87 89 99 96 98 97 97
15 16 15 15 9 8 6 6 7 6 5 5 5 10 18 16 12 8 8 7 14 98 100 100 100 95 95 81 59 55 74 100 96 77 87 95 98 100 98 98 99 99 96 94
15 10 8 6 7 7 6 6 6 7 8 13 68 77 64 44 33 9 22 54 73 100 100 100 80 82 85 58 48 78 68 95 96 95 89 98 98 99 98 96 98 96 96 98
4 4 5 6 7 8 7 10 12 21 48 67 74 95 50 22 39 99 100 90 100 100 88 96 79 46 36 30 33 81 89 84 88 90 90 94 99 96 80 59 82 98 97 98
5 8 9 19 33 45 47 42 66 79 71 74 83 89 94 100 100 100 100 100 100 100 53 67 44 34 31 35 32 29 77 77 85 71 81 94 97 91 70 96 78 99 97 98
33 39 59 79 100 100 95 78 85 72 84 94 89 99 100 100 100 100 100 100 94 66 36 36 32 30 32 32 31 31 32 65 85 94 89 93 96 92 70 76 80 96 99 96
70 76 90 100 100 100 90 82 96 100 100 100 100 100 100 100 100 98 97 78 54 60 49 44 41 38 36 35 34 33 28 27 31 45 78 95 100 100 95 99 97 97 98 98
78 93 100 100 100 100 100 100 100 100 100 100 100 100 100 100 100 100 100 99 79 59 51 51 48 46 40 31 22 28 24 24 28 28 27 48 64 76 76 90 96 97 98 97
92 100 100 97 100 100 100 94 100 100 100 100 100 100 100 100 100 100 96 81 67 54 51 49 43 41 40 35 30 30 36 30 28 30 34 34 28 29 43 64 76 85 86 97
100 99 97 99 100 100 100 100 100 100 100 100 100 100 100 100 100 100 96 79 66 54 36 30 31 30 29 29 32 35 34 34 33 36 40 44 51 50 42 36 38 53 66 76
95 99 99 100 100 100 100 100 100 100 100 100 100 100 92 79 69 71 63 36 36 24 22 18 17 16 16 17 16 18 18 22 31 38 41 53 58 64 77 82 76 69 63 68

GFSCGP_500_rhum_111.txt.gz
RH
16 16 10 12 15 12 16 16 14 14 51 20 21 11 13 25 22 26 45 47 52 49 43 43 44 45 49 49 47 45 43 42 41 41 40 41 46 48 46 58 60 59 62 71
16 12 12 34 33 31 30 23 29 40 39 55 36 26 23 31 47 50 55 47 41 41 42 40 40 38 37 37 39 40 38 37 38 40 40 43 44 43 43 50 60 54 52 52
17 13 11 15 25 49 42 44 49 71 56 62 36 35 34 53 49 58 58 55 40 47 48 44 42 38 34 32 30 28 26 26 26 29 32 35 38 36 35 38 35 31 40 56
20 24 45 94 53 57 82 75 94 100 84 59 86 84 91 60 42 45 49 49 41 49 45 41 37 34 32 29 26 24 22 21 21 20 19 18 17 17 17 17 17 17 21 27
36 60 83 77 59 92 97 86 100 96 97 99 81 99 42 85 100 58 54 45 50 46 40 36 34 31 27 25 22 21 20 19 18 18 17 16 15 15 14 13 13 13 14 16
52 82 80 82 70 63 75 100 98 99 100 100 67 97 88 97 95 100 41 53 44 36 35 33 30 28 27 26 25 26 34 32 20 17 15 14 13 13 12 14 14 14 12 11
74 68 99 96 82 100 100 100 100 100 100 84 90 100 87 100 96 84 43 61 48 44 42 39 33 29 25 24 22 20 18 15 13 11 10 9 8 7 8 10 11 13 23 33
100 99 100 97 98 100 96 100 100 100 100 100 100 87 100 84 78 91 77 53 60 54 40 32 28 23 19 17 15 12 10 9 8 7 6 6 5 4 3 3 5 7 9 26
74 82 78 76 74 92 100 100 100 100 92 99 100 100 98 99 100 94 82 76 43 26 22 20 19 17 15 14 12 8 7 5 4 4 3 2 2 4 5 4 3 3 4 15
97 100 99 92 100 100 100 99 98 100 96 100 100 100 100 81 89 99 73 37 22 19 16 14 13 12 10 10 8 6 4 4 3 2 3 25 31 30 24 15 18 6 4 15
90 100 100 98 96 98 100 99 100 99 100 100 100 100 100 99 98 70 27 15 16 16 15 13 12 10 9 7 6 4 4 3 3 21 36 54 50 36 43 64 68 38 18 37
95 98 99 99 93 100 100 100 100 100 100 100 99 88 84 77 54 26 15 12 10 10 9 9 8 5 4 3 3 3 2 5 38 58 63 88 83 84 95 99 96 86 69 72
100 100 100 100 99 100 100 100 99 97 95 85 38 78 55 36 27 22 11 9 7 7 7 7 6 4 3 2 2 2 10 65 80 85 95 93 82 93 95 96 94 96 97 89
100 98 88 100 99 82 97 98 85 62 40 20 11 9 11 33 12 8 10 8 6 5 4 3 3 2 2 2 4 43 75 82 95 96 97 86 86 93 98 97 96 97 95 98
100 99 100 100 98 86 82 72 34 14 12 10 9 8 7 6 6 7 5 4 3 3 3 3 2 3 5 7 78 97 100 100 98 95 92 97 98 95 95 100 98 100 99 92
100 100 100 89 78 74 62 19 13 12 10 9 7 7 7 6 5 4 3 3 3 3 4 4 4 52 94 100 100 100 98 100 89 77 69 72 98 98 99 98 98 96 95 98
100 99 94 78 52 19 16 15 12 10 8 7 6 6 5 4 4 6 8 11 8 6 6 10 98 100 100 100 100 100 92 93 98 94 76 70 87 98 99 98 98 98 93 97
51 17 13 13 12 12 12 10 8 7 6 6 5 7 20 38 39 31 26 29 10 8 41 100 100 100 100 100 80 83 99 71 97 100 93 96 97 97 98 99 99 99 98 96
11 7 6 6 6 7 6 6 6 5 7 9 25 86 88 100 83 27 34 32 94 59 100 100 100 100 100 100 90 79 100 100 94 97 98 98 94 96 97 98 98 98 98 99
4 4 5 7 9 14 25 32 32 33 43 77 81 96 96 69 42 56 100 100 100 100 100 100 100 100 100 90 78 85 100 100 99 91 74 93 96 98 98 96 85 96 98 98
12 26 37 50 78 96 76 79 84 83 76 98 100 80 74 98 100 100 100 100 100 100 100 100 80 67 69 67 63 63 68 82 91 94 100 96 99 98 98 98 84 90 94 95
45 54 82 86 95 94 87 86 84 100 100 100 99 94 98 100 100 100 100 100 100 100 100 100 91 58 44 44 40 34 30 34 34 44 63 84 96 100 100 100 97 99 100 94
64 82 93 100 95 100 92 100 100 100 100 100 100 100 100 97 100 100 100 100 100 100 100 100 95 75 67 63 54 40 38 39 33 31 31 33 52 67 89 96 96 99 97 98
76 91 99 100 96 100 100 100 100 100 100 100 100 100 100 100 100 100 100 100 100 100 100 92 74 69 59 41 36 33 33 30 31 26 24 28 31 33 34 42 54 70 85 97
86 100 94 96 98 100 100 100 100 100 100 100 100 100 100 100 100 100 100 100 100 100 98 89 72 37 25 22 21 21 20 19 18 17 22 25 26 32 37 40 44 43 42 54
100 98 100 98 100 100 100 100 100 100 100 100 100 100 100 100 100 100 100 100 97 62 38 22 17 16 15 16 16 14 13 13 12 12 14 15 15 16 20 34 43 49 60 62

GFSCGP_500_rhum_114.txt.gz
RH
12 10 9 9 10 10 9 8 9 6 7 54 86 55 13 9 10 10 9 12 22 50 69 26 5 11 54 49 50 54 54 54 53 53 52 50 48 48 49 50 58 92 53 53
9 8 7 8 9 17 18 15 12 16 14 26 45 92 30 46 21 23 37 45 32 72 67 28 13 45 43 42 45 44 44 48 50 49 47 45 45 46 48 50 50 54 51 46
8 7 8 8 8 19 19 46 36 38 29 32 64 88 57 38 49 52 46 51 85 77 36 25 46 47 44 44 45 42 38 35 37 37 38 37 37 37 38 41 41 42 47 42
10 10 14 15 14 58 100 51 100 99 100 97 65 96 99 37 58 83 58 100 71 35 25 37 50 45 45 39 43 41 37 35 34 30 28 27 26 27 29 29 29 31 35 35
8 14 21 42 36 50 98 100 95 69 65 100 96 98 78 92 98 94 100 86 61 41 57 55 47 46 43 40 40 36 33 31 28 26 24 23 22 21 21 20 20 19 18 18
32 56 56 73 69 73 62 52 71 80 96 96 53 92 78 74 100 100 99 89 60 48 68 57 51 46 44 41 40 38 33 29 26 23 22 21 21 20 18 17 17 16 16 15
75 71 74 96 66 86 74 77 100 98 99 69 98 100 76 98 92 100 93 98 49 79 68 41 38 35 35 38 40 40 38 34 31 27 25 26 25 24 24 21 16 14 14 13
95 63 86 98 77 63 99 100 100 100 100 97 99 87 100 80 100 100 99 91 76 90 83 63 52 49 44 40 37 34 30 25 20 17 15 13 12 11 11 11 10 10 8 8
93 83 65 66 59 55 78 76 100 94 77 86 72 92 100 100 100 100 100 100 100 100 98 81 68 65 54 39 28 24 20 17 14 13 11 9 7 4 3 4 4 5 5 5
78 88 71 83 62 75 81 98 100 100 98 100 97 100 100 96 100 100 99 98 97 100 93 82 63 39 26 24 21 18 17 17 14 11 8 5 4 3 3 3 3 4 4 3
99 97 82 92 65 99 100 100 95 99 99 100 97 98 86 98 100 100 100 100 96 97 70 21 13 13 15 16 16 14 12 8 6 5 5 4 3 2 4 22 40 49 39 35
98 100 100 97 100 95 100 93 82 82 79 98 100 98 94 100 100 100 97 84 97 43 17 14 13 12 12 10 9 6 6 5 4 3 3 3 3 14 38 44 57 56 49 44
92 91 100 98 98 98 88 92 100 99 100 94 100 100 100 98 100 96 85 60 38 18 9 11 10 9 8 7 6 5 4 4 3 2 2 16 92 73 60 75 81 93 91 98
99 99 100 100 100 100 99 74 79 96 100 100 100 100 100 95 95 67 43 26 14 9 8 8 8 8 7 5 3 3 2 2 2 4 34 84 100 88 96 93 96 93 94 95
96 97 100 93 98 100 82 88 100 100 95 95 63 44 31 24 17 12 13 9 9 9 7 7 6 5 3 2 2 2 2 20 78 84 96 79 98 98 98 97 98 93 98 94
93 85 77 76 90 100 100 96 90 78 98 36 12 14 9 8 9 8 8 6 6 5 5 4 3 3 4 5 49 88 64 100 100 100 98 98 97 95 98 94 97 95 98 96
84 95 94 100 100 96 86 79 85 63 19 14 13 12 13 9 7 6 5 5 4 4 4 6 5 6 91 95 100 100 99 100 100 100 99 100 98 70 91 95 96 96 96 95
100 100 94 93 80 50 26 20 16 14 12 11 10 8 7 6 6 5 15 25 15 12 12 8 36 86 100 100 100 99 100 100 100 98 100 100 97 96 98 97 97 97 99 99
100 81 38 19 12 10 7 6 11 12 13 9 9 6 7 10 26 77 77 33 23 27 16 35 100 100 100 100 100 96 100 100 100 100 100 97 100 100 97 98 98 98 91 100
14 10 7 6 6 6 9 13 19 22 24 42 35 32 66 69 89 70 28 31 50 100 100 100 100 100 100 100 100 100 100 100 100 100 100 97 88 99 98 97 98 98 98 98
6 8 11 15 18 26 46 56 62 62 77 76 82 89 87 99 86 100 98 100 100 100 100 100 100 100 100 100 100 100 100 98 100 100 100 100 100 100 100 100 99 96 98 97
15 22 37 66 77 67 78 74 68 73 96 98 100 100 99 85 95 98 100 100 100 100 100 100 100 100 100 100 100 82 71 75 60 56 61 75 81 90 98 100 100 99 98 98
41 44 98 76 76 82 88 82 83 95 100 100 100 100 100 100 100 100 100 100 100 100 100 100 100 100 100 96 76 63 69 61 50 39 33 35 32 32 37 56 86 94 96 100
58 65 74 82 96 93 99 100 100 100 98 100 100 100 100 100 100 100 100 100 100 100 100 100 100 100 96 84 63 40 30 22 20 17 14 15 16 15 14 18 24 29 35 48
60 68 86 92 95 94 100 100 100 100 100 100 100 100 100 100 100 100 100 100 100 100 100 100 82 54 40 24 16 14 13 12 12 10 8 8 9 8 6 6 7 12 14 17
65 95 91 93 96 97 98 100 100 100 100 100 100 100 100 100 100 100 100 100 100 100 85 34 24 19 16 14 14 13 11 10 9 8 7 7 7 6 6 7 6 6 7 13

GFSCGP_500_rhum_117.txt.gz
RH
26 24 20 13 11 10 10 9 10 10 8 8 6 9 16 33 49 27 21 12 9 77 72 32 12 7 6 6 29 28 22 32 51 54 53 55 58 58 56 52 52 58 95 98
16 16 11 11 11 12 12 11 11 10 9 9 8 7 6 38 63 83 78 82 79 100 92 80 20 9 7 8 46 32 34 42 44 44 48 49 49 53 54 53 50 48 61 67
13 14 14 13 13 13 11 10 10 11 11 8 11 9 8 13 27 36 46 69 70 100 97 81 27 19 18 22 60 46 49 40 37 42 42 40 40 42 45 47 46 45 43 43
15 14 15 14 13 16 11 20 53 47 36 24 29 28 46 38 34 50 80 100 100 100 97 80 20 23 24 62 53 53 54 49 40 35 38 39 36 33 32 33 33 34 34 32
15 16 14 11 10 16 21 34 54 64 77 100 62 82 41 38 46 94 100 97 98 96 97 90 63 58 62 64 54 53 49 46 42 41 39 36 35 33 32 30 28 27 26 25
11 11 10 18 29 47 55 62 66 89 95 72 29 87 40 58 80 87 95 92 98 99 97 90 98 91 81 65 53 48 46 46 45 43 40 37 35 33 30 27 26 24 23 22
14 13 27 34 56 55 68 94 80 55 76 63 71 50 42 64 76 84 58 65 98 100 100 100 100 100 96 64 39 40 39 38 38 39 38 37 37 35 32 28 23 22 25 25
26 37 60 68 75 82 82 90 77 70 70 59 70 46 61 84 67 92 100 63 64 93 100 100 100 99 64 45 42 43 42 41 43 44 44 43 40 36 32 30 30 27 22 18
48 61 59 63 76 76 64 75 100 69 69 60 54 62 83 88 100 86 99 98 90 87 100 100 92 82 65 82 75 62 57 51 43 38 35 30 24 20 18 16 14 13 11 9
75 70 48 47 58 78 76 87 86 82 85 89 81 82 83 100 98 99 100 100 98 100 98 99 98 99 94 86 70 76 76 48 27 23 23 21 19 18 17 15 13 11 9 5
62 69 62 72 83 89 88 90 100 100 99 100 81 90 70 82 98 100 100 92 86 75 60 68 73 87 82 73 61 44 39 41 28 21 20 18 15 12 10 8 6 6 5 4
78 81 82 76 91 86 87 85 100 100 98 88 84 73 89 77 78 72 64 64 60 73 95 83 80 82 71 34 35 19 14 15 15 12 8 5 4 3 3 3 3 2 2 24
92 92 95 92 92 89 97 95 100 100 95 81 90 83 99 98 98 84 57 41 56 93 94 93 85 64 37 20 16 10 8 8 7 6 5 3 2 2 2 2 2 48 56 51
85 90 95 100 100 100 99 94 88 86 93 85 95 94 100 97 81 80 75 60 57 64 58 83 65 33 10 10 10 10 8 6 4 3 2 1 2 2 2 11 78 86 64 75
78 93 100 100 100 100 100 96 85 83 97 98 99 100 97 95 80 66 64 58 47 30 38 20 13 12 11 10 9 6 4 2 4 7 43 68 86 92 77 100 96 93 76 86
93 100 98 97 99 100 100 100 93 98 100 100 99 82 91 78 75 67 61 28 10 12 11 10 8 6 5 5 4 3 10 62 72 91 88 100 100 99 98 94 92 92 80 82
96 100 92 90 93 82 75 84 99 100 99 95 93 91 77 31 23 16 12 12 10 8 6 5 5 4 4 3 17 89 93 73 98 97 99 100 100 100 100 93 92 90 84 79
99 93 85 82 83 81 83 75 78 70 49 40 26 18 17 16 15 12 10 8 6 6 6 6 6 7 13 65 88 98 98 100 100 100 100 100 99 98 97 98 98 100 100 100
92 93 89 85 84 71 55 23 11 9 9 9 15 10 14 21 23 14 9 22 61 41 19 15 18 68 100 100 100 100 100 100 100 100 100 100 100 98 97 99 98 99 99 98
92 95 89 55 21 10 7 6 8 14 21 52 71 64 33 27 20 36 90 90 45 33 53 100 100 100 100 100 100 100 100 100 100 100 100 100 100 100 100 100 100 98 98 99
71 51 14 8 6 7 18 32 46 50 50 65 85 84 76 94 90 100 97 100 87 100 100 100 100 100 100 100 100 100 100 96 100 100 99 97 97 99 100 100 99 99 99 99
11 10 13 12 18 33 60 64 72 68 62 57 92 100 96 99 100 86 100 100 100 100 100 100 100 100 100 100 100 100 99 100 82 59 44 33 25 29 36 54 70 94 98 99
15 18 24 42 53 65 72 78 84 83 77 89 98 100 100 100 100 100 100 100 100 100 100 100 100 100 100 100 100 99 77 54 28 19 15 14 13 11 8 7 9 24 25 43
24 24 41 64 76 79 82 86 94 98 99 96 100 100 100 100 99 100 100 100 100 100 100 100 100 100 100 90 50 30 19 14 12 10 8 6 6 6 5 5 4 4 4 5
42 49 69 76 83 87 85 84 97 97 100 100 98 100 100 100 100 100 100 100 100 100 100 100 100 98 50 16 15 14 13 11 10 10 9 10 9 9 8 6 6 5 5 5
60 56 78 83 80 85 86 89 98 100 100 100 99 100 100 100 100 100 100 100 100 100 100 95 42 18 17 19 20 19 17 16 16 16 16 16 16 14 11 10 8 7 6 6

GFSCGP_500_rhum_123.txt.gz
RH
44 46 48 50 46 41 39 38 34 30 28 27 26 23 22 17 13 12 13 14 14 13 11 10 9 8 8 7 6 8 14 15 16 16 15 12 15 23 16 28 38 37 45 52
48 44 46 44 38 38 40 37 34 29 22 20 19 18 16 14 15 14 14 13 12 11 10 9 8 11 13 16 14 28 56 40 32 38 36 25 26 23 20 20 28 38 40 52
42 40 42 37 31 30 33 32 30 25 21 18 17 16 15 15 14 13 12 11 11 14 16 26 34 73 81 90 62 52 64 81 81 42 17 18 30 36 29 25 18 22 36 63
31 33 30 28 25 22 21 20 19 19 20 19 18 15 14 14 14 16 20 27 34 32 26 28 32 52 100 100 96 82 98 99 70 48 50 83 76 49 32 43 53 33 30 46
29 28 24 22 19 20 22 22 21 19 16 13 12 35 10 12 19 23 22 27 30 25 31 39 52 50 55 85 87 99 80 70 98 100 96 92 92 74 44 40 53 56 47 37
30 28 28 28 26 23 19 16 14 13 13 10 13 64 24 38 34 27 24 23 26 35 42 40 55 84 82 91 97 95 95 96 83 77 62 71 57 61 80 80 63 59 52 48
34 33 28 25 22 18 16 18 19 22 37 40 45 46 45 34 32 37 35 37 33 26 42 51 66 80 66 86 94 93 84 100 76 74 82 79 60 52 58 68 63 56 53 51
35 24 22 23 21 20 18 28 51 72 68 58 52 43 37 47 46 37 43 43 50 48 96 94 100 100 94 85 69 100 82 83 95 79 89 70 45 52 48 50 53 53 50 46
23 19 19 21 23 31 41 49 54 73 64 56 46 38 37 42 54 57 59 55 88 100 100 100 100 100 100 100 100 100 100 84 78 92 67 54 61 62 53 50 46 36 41 50
17 21 20 21 46 56 65 72 62 72 80 68 51 46 43 48 53 63 65 63 56 77 96 100 100 100 100 99 97 81 92 99 100 94 78 82 80 46 40 37 35 37 40 50
13 13 23 36 57 96 93 77 80 98 84 88 72 53 60 59 62 63 73 67 56 48 47 61 93 100 97 86 94 85 92 95 89 66 59 62 34 42 58 61 58 53 52 51
27 62 61 48 94 97 100 72 83 100 82 87 84 53 77 86 81 76 72 78 72 75 78 77 77 74 74 67 60 63 83 66 56 47 53 46 44 52 51 33 19 22 43 50
74 79 66 41 93 95 83 73 77 84 87 72 90 66 99 88 92 100 94 78 72 74 69 66 60 54 52 45 44 45 44 42 32 34 40 48 42 41 29 14 11 11 9 8
62 54 47 34 78 82 73 70 91 100 81 87 77 87 100 90 82 83 82 80 76 67 66 70 71 62 50 44 55 57 54 48 50 54 47 37 26 14 12 8 6 5 4 4
100 79 34 33 85 88 88 91 91 100 92 95 95 97 93 87 99 100 100 90 92 91 78 73 64 65 62 55 52 50 30 31 47 42 24 14 11 10 4 2 11 11 24 38
100 52 50 100 100 100 93 72 79 93 100 96 88 78 82 90 95 95 96 100 96 85 80 78 76 62 52 53 49 27 16 12 10 8 5 3 3 6 24 69 77 78 84 94
95 59 75 95 100 100 79 68 87 95 85 93 94 92 86 88 91 90 87 78 66 54 44 32 23 19 17 18 15 10 8 6 4 3 7 27 63 52 70 96 90 99 97 96
61 99 100 99 100 89 81 79 92 88 86 100 100 94 89 80 55 29 16 13 11 11 10 9 8 8 8 8 7 6 5 4 11 60 88 92 95 85 94 99 100 98 99 100
81 96 93 100 97 89 71 93 96 92 92 85 63 35 15 9 9 13 16 22 31 32 26 20 17 16 18 20 14 11 48 94 100 100 100 100 100 100 100 100 100 100 100 100
100 96 92 96 98 80 80 92 94 80 40 13 10 15 21 30 35 36 45 64 62 58 79 66 82 60 32 39 93 100 100 100 100 100 100 100 98 99 100 100 99 99 99 100
78 100 97 100 99 83 89 77 38 10 13 19 28 34 41 48 50 59 84 88 85 85 97 99 57 92 100 100 100 100 100 100 100 100 99 95 89 83 75 54 59 52 83 89
94 100 100 100 100 92 61 27 14 20 32 33 39 60 54 72 84 92 96 94 95 86 100 100 100 100 100 100 100 100 100 100 96 53 17 23 23 8 7 6 6 5 6 22
99 100 100 99 84 53 19 19 28 48 54 62 74 67 74 81 90 94 86 79 90 100 100 100 100 100 100 100 100 100 100 88 55 14 10 12 12 10 9 8 7 6 5 5
100 100 100 51 31 20 17 27 38 52 57 65 63 78 92 97 88 92 97 97 100 100 100 100 100 100 100 100 100 100 71 15 13 15 16 13 10 9 8 7 7 7 6 6
100 87 48 29 22 26 37 34 36 48 59 61 71 85 94 87 98 88 92 93 98 100 100 100 100 100 100 100 94 28 12 12 16 17 12 10 12 11 10 8 8 7 7 7
41 30 28 28 30 55 46 40 47 58 62 64 88 93 100 97 96 100 93 96 100 100 100 100 100 100 94 49 24 17 17 19 21 18 14 13 13 13 11 9 8 8 9 9

GFSCGP_500_rhum_126.txt.gz
RH
51 59 58 46 52 53 44 45 45 42 40 31 34 34 31 29 26 24 22 20 20 18 16 15 15 15 14 14 14 13 12 11 10 9 9 10 14 13 15 16 12 14 38 31
54 48 52 50 45 43 43 43 41 36 30 28 29 30 30 27 24 21 18 17 17 16 15 15 14 13 12 12 10 9 9 8 10 24 35 33 24 26 23 29 25 18 16 26
49 45 49 50 48 45 43 40 39 32 28 25 22 20 22 21 20 19 18 17 15 14 13 13 14 14 16 18 18 18 24 28 58 79 82 81 67 42 46 47 40 30 22 17
37 42 40 38 38 34 31 29 27 26 24 22 21 18 19 20 18 16 15 13 12 15 20 20 18 19 18 19 28 51 95 100 100 99 98 82 98 84 66 48 81 51 29 21
37 38 36 35 33 31 28 25 22 22 23 25 24 22 17 16 13 12 12 13 17 22 24 23 21 18 22 30 31 42 50 56 63 74 89 100 96 76 74 68 91 81 76 55
45 42 43 40 34 30 29 30 29 26 22 24 22 20 14 15 15 18 24 25 26 26 29 41 38 34 47 56 64 82 77 90 91 88 95 90 85 88 99 100 93 74 72 69
45 43 37 35 34 30 28 25 23 22 19 18 18 16 14 17 21 20 23 22 21 28 28 34 41 55 90 77 73 100 84 82 89 92 100 85 86 98 93 94 82 67 59 60
56 50 43 36 33 28 24 24 24 23 22 21 26 24 24 22 28 29 30 25 26 39 52 54 80 100 100 100 96 88 94 100 78 69 85 96 97 84 99 89 61 50 52 52
56 48 35 26 25 30 38 39 53 58 68 48 29 28 27 32 32 36 40 53 54 50 66 57 84 99 100 97 100 100 93 91 95 73 59 59 60 78 77 79 53 52 54 32
38 38 36 31 29 29 38 59 66 88 75 58 43 38 32 31 40 50 56 62 70 65 77 65 56 55 76 81 99 93 100 100 92 75 55 88 80 74 91 78 33 20 29 33
17 23 34 35 32 39 63 74 89 99 96 86 63 41 39 41 56 63 73 86 96 95 100 92 76 63 52 45 47 59 65 79 65 68 93 75 67 64 52 30 24 32 37 51
14 38 25 80 60 74 93 84 100 100 92 85 77 35 44 61 64 85 91 100 95 100 96 89 80 73 67 57 50 50 45 41 40 34 50 74 58 33 24 20 25 35 45 43
19 60 91 97 100 100 97 78 100 100 100 70 81 51 63 61 74 91 97 92 90 96 96 83 77 69 62 56 52 44 39 40 36 32 26 27 37 29 30 33 32 25 30 24
71 94 86 90 83 89 73 47 71 92 91 89 65 79 71 71 79 88 100 100 97 100 97 84 78 77 72 71 60 55 53 47 43 49 51 46 44 39 30 16 18 16 6 3
99 80 87 90 84 96 66 39 31 75 91 98 76 68 66 81 79 93 98 100 97 92 88 83 84 76 73 73 69 60 57 53 52 42 14 13 8 5 7 8 3 3 6 50
95 84 86 89 100 100 76 44 83 97 100 93 82 63 81 74 81 83 88 86 86 95 97 81 56 35 33 33 30 28 24 21 14 10 7 4 4 4 5 13 23 57 61 74
45 50 54 78 100 100 58 63 92 100 99 98 73 72 75 77 86 87 83 80 77 50 17 11 11 9 8 7 7 7 7 7 6 5 9 16 53 87 82 90 74 71 64 85
36 71 64 99 100 87 56 61 73 87 89 81 76 82 83 88 86 77 47 16 10 14 18 26 32 27 20 15 12 9 7 6 6 17 59 100 100 100 100 100 100 100 99 99
72 87 99 88 84 81 48 51 78 84 81 87 80 86 78 48 16 13 18 25 35 39 56 56 59 62 35 24 25 20 13 13 35 81 100 100 100 100 100 100 100 100 100 100
57 68 88 94 88 94 79 82 92 86 75 72 56 30 14 16 23 22 30 38 43 64 84 74 96 90 86 55 39 62 83 99 100 100 100 100 100 100 96 90 92 100 100 100
55 82 77 99 99 90 95 100 90 82 66 50 19 16 22 26 41 52 47 55 74 98 100 100 100 84 86 100 100 100 100 100 100 100 100 99 100 88 25 15 11 16 50 79
93 100 100 100 95 98 100 98 90 72 36 16 17 25 34 58 68 77 81 91 98 88 95 95 100 100 100 100 100 100 100 100 100 100 100 99 34 13 10 8 8 7 6 6
99 100 100 100 100 100 100 99 91 39 14 20 35 36 42 55 82 90 83 92 88 90 90 98 100 100 100 100 100 100 100 100 100 66 40 44 28 36 9 8 7 7 6 6
97 100 100 100 100 100 100 77 33 18 26 31 42 48 60 72 83 67 81 94 97 89 92 100 100 100 100 100 100 100 100 100 74 36 24 18 14 12 11 10 8 7 6 6
98 100 100 100 100 100 93 35 24 33 33 35 47 58 68 82 76 72 83 84 88 92 98 99 100 100 100 100 100 100 90 55 28 23 21 18 14 13 14 12 8 7 7 7
100 100 99 100 94 67 32 37 41 38 42 51 58 64 85 86 90 76 93 100 99 92 99 100 100 100 100 100 100 87 64 31 24 24 25 19 16 14 13 12 10 10 8 8

GFSCGP_500_rhum_129.txt.gz
RH
56 56 54 57 54 54 53 51 50 49 48 37 37 39 39 34 32 35 34 32 30 29 26 23 21 20 18 18 17 16 16 16 15 14 14 13 13 12 12 12 15 12 9 8
55 52 56 56 54 51 49 45 46 44 43 38 35 32 33 31 28 28 29 28 26 25 22 19 18 17 16 15 14 14 13 13 13 13 14 13 11 12 16 25 33 40 34 22
54 53 53 53 52 49 43 40 42 37 39 35 28 26 25 25 24 22 22 21 21 21 20 17 14 12 10 9 9 10 10 13 13 14 14 16 18 39 53 57 58 67 60 52
39 48 42 41 42 38 33 37 32 31 29 28 26 22 22 21 22 22 22 22 20 16 14 12 11 10 10 10 12 17 21 20 19 20 24 33 40 64 96 93 84 88 84 68
44 41 39 36 38 36 34 34 34 32 31 28 26 26 21 21 23 22 21 20 19 17 15 13 12 10 12 14 18 17 16 20 28 29 30 38 53 56 53 86 88 95 90 88
52 49 46 44 45 45 44 44 41 38 35 30 28 28 21 22 24 24 23 25 23 17 14 14 14 16 18 24 23 29 23 30 32 62 62 64 82 90 92 99 83 91 84 89
64 60 57 52 49 44 40 38 36 35 32 30 28 27 24 22 22 26 33 25 20 19 18 22 23 23 21 31 36 51 62 74 66 68 79 74 72 86 87 98 100 98 96 97
70 65 63 61 57 52 46 40 35 32 30 29 27 24 23 24 26 25 30 33 31 27 31 31 31 32 35 47 57 95 94 92 72 49 66 90 84 68 70 86 66 72 78 96
80 74 71 62 55 46 45 46 48 42 38 31 30 28 26 27 32 35 33 36 30 34 43 48 45 42 46 49 51 47 77 95 78 73 74 86 85 63 52 46 36 35 49 53
59 55 50 43 41 43 43 39 43 68 83 54 30 26 29 37 48 46 43 40 42 50 53 58 70 71 70 62 56 52 41 34 46 76 86 86 77 48 64 66 52 44 48 57
37 48 43 41 41 48 49 45 44 76 91 100 77 30 50 60 55 43 47 54 61 66 73 82 79 93 88 71 60 55 49 41 36 32 35 36 54 40 47 65 51 39 33 23
93 84 74 42 49 86 87 89 72 100 88 93 95 40 55 66 56 59 65 69 64 76 87 88 79 76 85 76 70 66 61 54 48 46 38 38 34 27 24 42 51 42 30 19
81 79 79 80 85 97 100 100 100 100 99 82 91 50 70 66 72 62 59 64 77 87 100 99 78 73 74 72 68 64 60 57 52 52 53 49 42 36 29 24 22 28 31 29
39 59 83 93 93 94 85 94 100 100 98 79 53 64 69 74 77 80 63 70 73 81 98 85 72 77 76 71 69 70 69 69 58 60 51 43 40 39 42 35 33 30 23 15
46 50 67 67 86 97 94 94 93 79 86 73 41 44 71 90 94 84 73 73 72 82 85 81 79 82 79 71 60 53 47 54 55 38 43 38 31 19 11 6 4 4 5 7
12 16 37 64 100 100 90 80 73 91 90 67 75 66 100 88 80 81 82 79 73 87 95 89 85 48 17 10 8 8 7 7 8 9 11 8 7 6 5 11 38 60 71 73
20 16 16 21 66 82 87 62 91 80 92 82 81 92 84 76 81 82 80 80 82 81 67 26 12 15 20 23 21 17 12 8 6 5 5 6 9 34 92 100 100 100 100 100
28 21 38 43 51 58 47 70 86 93 94 95 95 79 71 75 71 68 77 53 21 13 20 30 37 39 43 43 45 36 22 15 12 10 18 47 95 100 100 100 100 100 100 100
30 23 51 86 87 66 53 45 67 77 84 99 82 65 76 76 61 36 14 13 22 28 36 40 51 78 70 82 80 69 57 39 37 75 98 100 100 100 100 100 98 100 100 100
26 18 40 68 75 63 49 63 75 89 72 100 89 82 77 63 39 15 13 20 36 43 54 66 91 100 98 100 99 60 58 100 100 100 100 100 100 100 98 94 93 95 91 98
51 43 44 47 65 41 53 65 90 94 100 97 93 82 63 24 15 16 34 49 57 68 87 80 66 75 99 92 100 100 100 100 100 100 100 100 100 89 42 33 22 17 16 17
69 100 99 83 45 77 100 100 100 100 99 98 95 50 19 19 24 36 49 61 71 78 92 62 79 83 75 100 100 100 100 100 100 100 100 100 99 47 34 25 21 17 10 8
65 97 100 100 84 100 98 100 100 98 98 97 86 25 26 33 40 52 64 73 75 95 95 72 70 92 100 100 100 100 99 100 100 100 100 88 52 48 41 24 15 14 9 8
97 92 92 100 100 100 97 100 100 100 100 84 25 25 32 40 54 66 79 70 78 88 88 72 85 90 97 100 100 96 100 100 99 100 100 99 84 44 26 22 19 18 11 10
99 99 100 100 100 100 100 100 100 100 83 30 28 28 39 56 69 82 80 76 67 73 82 93 92 91 97 100 94 100 100 100 99 99 82 44 30 27 23 19 16 13 12 13
92 98 98 100 99 99 100 100 97 52 40 37 37 47 56 64 77 90 76 83 85 94 98 96 94 93 100 95 96 100 100 90 73 60 46 33 40 51 21 16 15 12 12 11

GFSCGP_500_rhum_132.txt.gz
RH
36 34 47 48 48 46 52 51 51 52 48 46 44 44 45 43 42 42 39 38 34 29 26 28 30 28 25 24 22 21 20 19 18 18 17 17 16 16 15 15 14 14 14 13
39 37 37 40 44 47 48 47 48 48 45 38 36 32 36 38 39 36 35 34 30 27 24 22 20 20 19 19 19 19 18 17 15 14 12 11 10 10 9 9 10 14 23 22
42 36 34 35 36 40 35 34 39 34 32 35 28 28 21 27 29 27 26 24 24 23 22 21 21 21 19 17 15 14 13 11 10 9 8 7 7 9 10 12 14 26 32 47
39 44 38 35 46 40 36 34 31 30 28 30 24 25 24 21 26 27 26 25 24 23 23 22 20 18 17 15 13 11 10 8 8 8 8 9 12 16 19 19 18 17 24 64
44 44 41 42 43 39 37 35 34 33 31 29 29 26 28 24 28 28 27 26 25 24 22 20 18 17 16 13 11 10 9 7 7 10 18 20 19 23 22 24 30 38 53 50
56 52 51 48 48 47 45 44 42 40 38 35 36 34 33 27 31 30 28 26 24 23 23 21 18 16 15 13 12 12 11 12 10 11 16 21 24 26 43 53 51 61 74 73
70 69 66 63 60 58 57 55 52 48 45 44 38 37 33 32 31 29 30 31 28 25 22 23 22 20 18 16 16 18 19 22 25 23 34 55 70 63 58 75 65 73 82 95
72 71 70 64 62 60 59 60 60 57 53 60 44 40 37 34 33 34 35 33 30 28 32 30 26 21 21 22 25 28 36 38 36 39 51 72 87 64 55 76 85 90 78 94
94 82 74 76 84 81 74 67 62 58 52 49 46 40 35 35 41 40 40 42 40 41 37 31 29 29 27 29 38 44 56 57 50 46 47 41 50 71 69 94 77 56 69 72
92 83 76 69 66 62 58 56 57 75 88 94 79 76 53 33 39 67 56 54 50 40 34 39 38 37 40 46 51 54 61 68 56 51 43 35 28 55 61 47 43 45 52 66
75 74 57 55 53 55 62 47 66 63 76 89 93 62 87 55 55 55 58 62 56 51 53 50 42 44 51 57 66 66 61 68 62 52 41 34 28 23 25 23 29 38 30 48
98 95 72 81 89 80 76 44 69 97 93 98 100 55 80 74 69 66 70 61 61 65 60 57 53 55 55 65 69 62 62 66 61 57 50 41 36 35 36 33 29 25 23 22
70 70 67 64 70 76 76 73 96 100 100 93 100 61 92 75 61 64 65 62 65 61 66 63 66 59 65 76 68 61 62 63 62 62 60 56 52 41 39 35 32 27 28 22
16 31 55 62 60 84 69 77 96 100 99 93 87 88 74 90 62 53 46 56 68 79 80 77 68 65 84 80 70 66 64 65 61 59 62 61 57 51 45 44 42 37 30 25
11 11 20 27 35 45 50 53 78 87 78 92 60 93 63 85 65 70 86 94 93 88 78 78 78 83 96 90 80 65 38 18 13 15 19 28 31 23 18 16 12 8 5 4
20 16 16 11 13 18 21 22 27 52 64 84 75 70 100 85 79 95 95 86 83 79 74 86 87 89 80 59 24 10 9 9 9 7 6 6 6 7 7 10 12 20 35 48
21 22 24 17 23 26 23 13 18 37 65 86 90 78 97 84 88 95 88 78 78 67 71 69 35 16 13 15 22 22 22 22 21 15 9 8 6 12 23 49 85 100 96 93
30 36 40 36 48 67 36 24 15 29 57 80 97 95 81 98 95 88 77 75 73 52 21 14 17 23 27 30 42 60 61 61 53 30 18 13 24 63 95 100 100 100 100 100
36 45 66 57 45 41 31 28 27 51 37 70 85 93 99 100 94 87 76 72 54 24 19 24 32 45 53 65 85 86 89 91 74 50 33 70 100 100 100 100 100 100 100 100
60 62 71 64 55 40 24 22 41 59 51 75 92 100 98 92 90 88 72 50 20 20 41 58 67 77 88 81 66 84 81 75 60 72 100 100 100 100 100 100 100 94 73 57
69 79 70 66 68 39 36 36 37 50 62 72 92 99 96 88 91 63 31 18 24 42 56 78 88 93 57 78 82 80 100 98 100 100 100 100 100 100 100 99 61 34 23 26
60 77 73 79 83 62 92 98 68 83 100 100 100 94 89 97 92 40 23 27 41 55 68 83 97 92 63 68 89 96 94 100 100 99 100 100 100 98 80 60 39 31 21 15
71 56 64 95 89 100 79 100 91 82 96 96 97 95 98 95 36 26 30 42 57 72 70 81 97 84 81 90 91 95 100 100 94 100 100 100 100 82 63 64 50 21 19 15
95 83 46 68 73 79 92 100 98 80 95 93 100 100 100 46 28 31 42 61 77 71 58 64 80 76 91 95 94 98 100 96 100 100 100 99 98 100 87 28 21 19 14 13
99 87 74 75 73 95 100 100 90 94 100 100 100 93 40 33 29 43 66 82 77 65 51 56 81 96 95 96 100 98 90 100 100 99 99 96 82 58 41 28 20 16 14 13
63 90 96 99 90 77 88 91 100 100 99 100 74 48 43 42 47 62 79 94 74 73 75 84 98 97 94 99 100 80 100 100 99 99 96 83 73 78 94 68 19 18 15 13

GFSCGP_500_rhum_138.txt.gz
RH
49 39 35 26 22 19 16 25 35 27 47 34 24 20 15 29 36 40 40 33 24 18 25 25 23 24 24 24 24 23 23 22 21 21 21 20 20 20 19 18 16 15 14 13
51 42 36 31 25 20 24 23 26 27 33 34 27 19 20 23 27 31 25 23 20 14 23 24 22 21 21 22 21 21 22 23 22 22 21 20 19 18 16 15 15 13 13 13
53 47 41 34 25 20 27 24 28 24 24 25 29 22 24 25 20 18 23 42 25 23 24 26 29 28 27 26 24 25 25 24 23 22 21 20 18 18 16 16 14 12 11 10
57 51 46 42 29 26 27 28 23 20 23 24 32 29 25 36 39 27 25 34 30 24 26 27 29 32 33 30 28 28 27 25 24 22 21 19 17 15 14 12 10 10 8 8
54 53 51 43 33 34 38 38 37 37 37 38 33 42 23 33 69 39 31 28 27 30 35 32 33 30 34 34 32 30 28 25 23 21 18 16 15 13 12 10 9 10 10 10
56 61 52 48 47 47 48 45 42 42 41 34 29 54 20 40 99 98 76 26 38 43 51 52 50 44 40 36 32 29 27 24 21 19 17 15 14 12 11 12 17 19 22 24
68 65 63 59 56 50 46 50 47 49 50 37 43 89 84 74 94 100 90 82 68 68 64 63 58 47 39 36 32 29 26 24 21 19 18 15 12 11 12 18 24 22 27 31
78 73 72 64 53 46 40 51 61 66 58 69 59 86 39 71 86 97 99 99 69 76 85 81 67 60 45 37 35 32 29 27 24 23 20 16 15 13 15 23 27 25 29 30
92 99 87 60 43 52 58 66 69 87 66 60 37 35 63 59 95 99 82 94 100 96 89 89 67 58 51 48 42 42 39 35 34 32 27 20 20 22 25 30 29 30 29 24
85 100 97 91 76 56 57 82 81 84 100 90 75 66 86 88 90 100 100 100 100 98 99 96 88 59 59 55 55 49 48 51 50 45 37 27 29 32 37 34 32 32 33 32
86 85 94 100 92 95 100 98 98 96 80 74 66 54 90 91 94 98 99 100 96 94 100 82 68 63 58 49 50 56 54 51 48 40 36 35 34 40 44 40 40 41 42 40
100 80 68 74 99 100 100 100 98 90 85 89 100 82 99 100 90 91 90 96 99 95 100 100 79 54 61 55 44 46 67 64 60 54 49 42 44 51 53 48 49 51 53 49
98 93 93 78 86 84 100 100 100 97 78 66 76 54 59 99 94 87 100 100 94 99 64 100 97 62 56 52 49 61 65 62 62 55 50 56 58 58 56 45 41 40 48 50
100 95 92 89 83 97 98 93 99 72 74 83 80 89 64 73 100 94 90 92 100 92 91 100 100 79 68 63 68 65 64 67 59 52 46 38 26 16 8 7 7 8 15 29
100 92 91 80 68 51 43 59 49 48 96 94 55 69 42 41 100 100 69 88 92 99 97 100 98 80 70 61 56 68 67 69 49 25 15 12 11 10 9 8 6 7 7 8
42 50 45 28 20 14 16 10 9 9 21 71 70 56 9 37 28 100 69 10 21 48 68 100 100 89 60 55 69 70 70 64 29 16 16 17 31 42 36 30 23 13 11 13
62 76 40 38 40 39 38 11 20 28 53 95 77 72 36 30 39 33 40 100 43 63 81 99 86 67 63 69 79 79 57 24 20 26 45 55 67 51 35 32 34 29 19 60
41 25 36 31 42 89 32 25 32 41 33 24 40 60 38 47 67 18 19 41 78 83 87 77 85 63 56 76 86 45 22 36 44 52 71 75 47 40 45 44 55 43 39 100
14 14 12 42 49 50 28 20 42 44 30 29 50 41 40 63 32 37 41 45 64 56 51 81 81 75 79 82 42 29 48 61 82 93 65 54 48 78 56 52 80 75 100 100
15 13 49 31 44 47 18 40 54 69 42 62 56 51 55 49 48 59 58 63 73 74 81 93 92 85 72 51 37 49 75 91 98 70 49 62 85 54 74 100 100 100 100 100
80 91 90 80 95 81 52 79 91 95 46 66 71 64 98 76 89 52 56 72 100 100 100 100 100 89 44 41 56 81 80 96 100 59 73 96 72 93 100 100 100 100 100 100
35 42 57 82 100 87 80 74 77 75 75 77 67 57 98 96 100 99 93 100 100 100 100 100 91 43 42 66 79 72 80 87 86 95 96 91 98 100 93 100 100 100 100 98
96 98 88 98 79 87 87 99 74 94 100 93 100 80 94 92 87 66 83 89 97 100 100 64 36 45 73 75 51 67 76 80 93 95 96 100 100 93 100 100 100 99 100 100
100 99 100 99 72 71 62 57 59 61 71 71 90 78 96 99 87 83 84 95 100 98 41 36 49 79 75 58 42 48 80 88 91 92 98 100 100 100 100 100 100 100 90 45
99 100 99 98 99 85 99 100 85 78 77 66 68 57 73 85 94 97 100 100 92 44 36 54 83 82 68 67 79 88 86 87 90 95 94 87 100 100 100 100 96 81 49 40
100 100 93 89 88 80 93 90 73 68 62 42 55 43 62 79 96 100 99 86 58 57 63 68 84 81 81 81 90 90 83 90 90 93 85 100 100 100 100 99 96 67 57 72

GFSCGP_500_rhum_141.txt.gz
RH
55 53 54 52 49 42 33 29 28 24 33 20 20 20 20 18 18 32 43 22 16 13 12 12 23 20 19 21 22 23 23 23 23 23 22 23 23 22 21 20 21 20 19 18
59 50 65 60 57 47 39 36 30 26 46 44 30 21 22 25 28 39 37 29 24 20 16 14 17 14 16 18 22 25 27 26 26 27 27 27 25 24 22 21 20 19 18 18
63 60 56 59 66 53 42 39 32 25 23 25 25 21 27 30 31 32 35 31 28 24 18 17 18 19 26 24 29 31 31 31 31 31 30 28 26 25 23 21 20 19 19 17
58 69 71 72 65 51 44 44 37 28 26 28 34 27 26 31 39 39 45 37 28 24 20 19 25 37 47 47 42 37 38 38 37 35 32 29 25 24 22 20 19 18 17 15
59 66 70 63 55 51 45 49 42 35 34 35 36 49 27 34 38 58 43 36 27 24 27 27 41 59 62 53 47 45 44 44 38 34 31 28 25 22 20 18 16 15 14 13
62 72 64 61 59 56 55 51 47 46 48 41 42 52 27 35 34 47 64 44 39 47 53 61 73 58 56 49 44 39 49 50 39 33 29 27 25 21 19 17 15 14 12 11
69 60 66 62 55 54 55 61 58 56 56 50 45 43 37 44 44 44 49 82 92 97 82 75 66 55 55 56 53 55 53 47 37 33 32 29 26 22 21 20 17 14 12 11
78 70 74 75 58 68 61 66 62 65 60 51 39 33 35 71 72 86 96 81 77 64 66 70 48 52 70 79 75 72 54 53 47 54 57 44 31 26 27 26 20 18 18 16
92 69 75 58 55 66 68 68 74 75 60 43 34 35 47 51 67 77 77 73 72 67 66 52 70 88 88 100 84 67 50 47 45 43 40 35 36 36 38 36 30 22 26 28
70 73 68 73 56 52 69 94 100 94 89 65 44 43 47 55 81 95 91 96 99 100 100 77 92 72 100 100 77 62 59 58 49 43 36 32 30 31 34 32 33 30 31 39
65 66 76 95 72 76 85 92 100 100 100 81 64 48 50 64 79 99 100 100 100 89 98 89 100 100 100 99 100 97 77 56 50 46 36 33 44 50 52 42 39 38 45 44
97 100 82 89 95 100 100 100 100 100 82 100 100 53 74 100 77 100 100 100 100 100 100 100 100 100 100 100 100 100 95 64 53 50 48 46 48 52 47 41 41 47 48 44
100 100 100 100 100 100 100 100 100 95 93 82 100 72 68 86 100 97 71 89 71 72 88 84 88 100 92 100 100 100 93 67 54 52 56 52 57 62 46 25 15 6 6 8
100 100 95 100 99 100 100 100 100 89 97 95 96 92 65 74 100 100 98 79 94 88 79 74 85 98 99 100 99 100 86 75 57 49 48 54 54 65 56 27 12 7 8 8
100 100 100 100 89 99 100 100 80 76 98 100 79 74 51 40 72 80 54 49 57 44 17 17 25 50 87 100 100 100 80 69 70 66 65 64 64 47 16 13 23 28 23 21
100 93 100 95 87 97 100 80 80 73 49 73 88 83 66 90 65 22 11 12 27 28 21 28 55 92 100 96 100 98 73 51 57 70 74 63 28 18 34 43 45 39 32 28
98 94 99 84 75 64 55 47 32 20 17 19 20 14 22 18 31 21 26 32 28 34 57 72 83 70 92 81 62 62 64 65 75 71 45 24 42 42 41 60 42 31 34 31
40 51 54 59 50 58 28 24 33 64 41 52 48 38 35 32 24 21 25 35 38 50 55 61 61 62 67 60 65 83 86 83 76 45 35 53 76 82 60 39 55 46 38 39
43 47 56 95 54 20 15 11 27 58 54 44 39 36 32 30 35 40 41 45 45 53 51 52 52 55 74 94 100 98 84 84 40 37 62 81 90 70 50 69 58 47 75 97
26 36 38 25 19 11 8 11 32 62 33 44 56 56 51 58 57 57 63 65 65 68 52 35 47 80 100 100 100 98 90 44 46 75 83 86 98 61 74 85 72 93 97 97
28 26 35 25 37 20 15 41 95 99 67 73 77 78 64 69 80 67 80 88 88 92 96 98 99 100 100 100 100 91 51 54 80 72 67 79 85 96 98 94 97 99 95 100
51 60 39 39 61 37 42 59 79 96 96 97 100 97 91 94 80 65 84 100 94 100 87 100 99 98 100 100 70 45 67 79 54 58 70 83 97 100 97 94 98 97 100 100
76 88 79 82 60 63 71 82 94 94 84 98 94 76 100 100 97 87 90 100 100 80 97 100 100 100 81 42 46 82 76 48 42 66 84 92 100 96 92 92 90 100 100 100
99 95 100 96 90 94 87 89 72 74 94 93 83 73 76 88 93 95 91 92 88 90 98 100 100 82 38 57 92 69 55 60 89 82 85 94 96 79 91 83 100 100 100 100
84 99 100 95 100 100 100 100 100 100 100 97 78 62 66 62 71 61 51 66 68 88 100 96 62 44 62 94 82 77 82 91 87 78 87 89 91 96 89 100 100 100 90 83
72 89 96 88 100 100 100 100 93 65 54 51 56 53 55 42 49 48 47 65 74 94 88 67 65 72 76 92 82 84 93 95 81 81 85 91 77 82 90 93 99 100 100 92

GFSCGP_500_rhum_144.txt.gz
RH
53 50 57 57 49 49 43 42 41 42 36 32 29 27 23 22 21 21 20 20 19 18 18 18 22 25 25 22 19 21 20 21 24 28 31 34 32 30 28 26 26 24 23 22
52 51 64 63 55 51 52 51 51 51 42 37 33 27 26 23 26 27 23 22 20 20 20 23 28 28 25 21 20 20 21 24 29 40 40 38 36 36 34 32 30 28 26 24
57 56 68 59 60 54 54 52 49 53 51 43 37 32 28 29 32 43 53 32 24 23 26 30 29 30 25 24 23 22 23 36 45 43 37 32 33 35 37 36 34 31 27 25
55 57 58 60 62 64 54 63 58 56 54 44 43 35 32 34 45 56 51 46 39 37 33 31 29 36 33 30 30 36 54 59 47 35 28 32 38 40 36 33 31 28 26 24
62 64 72 64 57 51 46 49 56 55 49 47 44 46 31 34 41 49 48 46 41 33 32 35 41 54 60 58 72 59 66 54 39 38 38 41 46 38 34 30 28 26 24 22
62 63 53 60 67 70 63 58 59 59 56 50 48 54 34 40 41 42 45 45 38 35 38 48 65 72 91 88 85 80 60 59 59 65 57 43 44 39 36 34 30 26 23 21
75 60 58 56 56 70 68 65 64 62 57 46 49 56 42 46 41 45 49 44 39 40 54 74 90 100 100 95 85 70 78 81 93 70 60 41 49 55 57 58 55 40 30 26
78 65 68 69 62 67 67 68 68 71 62 52 50 46 47 43 44 52 51 45 50 50 47 52 58 84 83 85 82 78 96 79 90 85 56 45 45 41 37 38 34 31 28 27
75 63 73 67 71 69 64 66 68 74 68 59 47 46 52 54 66 62 58 68 66 57 64 72 71 80 100 100 84 100 100 95 97 80 52 53 60 40 33 34 30 25 22 23
76 60 63 58 60 60 69 71 60 67 71 65 47 46 59 69 70 67 71 75 85 100 99 99 90 96 100 100 74 98 100 98 95 70 72 71 51 45 41 36 31 28 25 29
62 63 49 49 47 54 81 81 76 87 90 71 65 54 58 73 87 89 93 97 81 85 95 90 83 79 71 77 100 100 100 100 100 100 97 65 50 44 41 37 36 37 39 42
80 63 56 81 78 64 67 80 94 91 83 89 92 65 61 79 86 90 98 92 94 83 79 82 99 90 100 100 100 99 100 100 100 100 95 95 75 50 41 39 43 43 46 49
97 98 81 64 100 100 100 96 100 100 100 100 100 89 85 80 91 97 100 79 80 85 88 91 89 96 100 99 88 80 88 100 100 99 92 69 48 46 43 47 40 44 47 45
88 99 96 95 100 100 100 100 98 100 100 100 100 100 87 81 100 100 99 77 98 93 86 83 83 75 58 44 65 68 100 84 100 99 100 89 56 38 34 44 58 63 42 31
100 99 100 96 100 100 100 100 100 100 100 100 97 100 91 88 98 92 84 85 65 52 47 50 36 51 67 63 58 68 94 92 84 77 80 70 56 69 66 48 42 35 28 30
100 99 96 91 100 100 100 89 93 100 100 100 100 94 73 85 70 46 39 36 25 14 16 24 40 46 53 67 79 82 84 67 76 55 59 74 79 74 50 38 46 51 49 60
98 100 100 95 100 100 94 62 98 99 99 96 95 75 52 34 27 21 12 12 19 26 40 34 30 50 54 61 60 48 47 42 45 72 96 91 86 46 41 59 70 79 69 43
46 53 63 93 100 99 76 76 77 69 63 54 50 46 36 33 28 28 28 26 26 27 26 38 56 64 62 57 45 50 52 63 94 99 94 93 45 51 82 86 93 73 56 71
45 49 50 66 66 74 63 61 43 29 20 20 20 36 57 60 49 43 39 33 33 41 44 63 67 59 62 65 54 42 72 88 98 100 98 65 58 94 87 88 96 66 85 90
44 55 75 84 64 36 18 22 48 46 16 15 37 35 41 49 55 84 77 64 54 51 52 41 49 58 50 57 74 84 95 98 100 100 77 69 94 86 74 74 94 100 100 98
60 50 45 24 22 15 12 12 23 44 31 52 48 64 83 98 95 82 75 76 77 69 56 68 66 80 94 88 89 100 100 100 97 57 84 89 82 79 82 94 89 95 99 94
67 64 48 37 39 47 46 35 53 79 93 91 100 100 100 100 99 99 89 74 81 74 65 58 88 92 72 77 91 100 93 59 54 93 88 74 73 83 90 86 96 97 99 84
47 83 85 85 74 72 76 62 67 100 100 99 100 100 96 87 83 75 61 67 79 93 93 80 91 91 86 94 100 100 53 68 97 80 67 83 88 89 87 94 91 92 83 100
40 58 78 100 88 94 94 93 97 99 96 100 97 92 91 91 87 74 75 73 78 90 85 85 76 87 98 100 82 58 79 100 80 80 94 86 84 83 85 87 92 78 88 100
26 26 48 61 78 98 97 93 88 94 100 100 99 82 64 91 62 43 51 71 74 73 54 50 72 99 100 87 71 77 100 95 88 97 93 83 86 85 83 82 80 70 94 100
28 22 26 38 57 75 88 100 100 100 100 98 59 42 38 36 35 37 54 48 64 84 69 75 94 95 85 75 82 96 100 96 92 100 93 91 77 88 90 74 63 79 100 100

GFSCGP_500_rhum_147.txt.gz
RH
53 45 54 64 58 58 52 45 44 47 44 39 39 38 36 33 32 30 27 24 22 22 22 21 21 23 22 22 27 32 30 26 22 21 18 19 20 20 25 28 31 29 30 31
48 45 59 52 50 50 54 51 51 54 58 52 50 46 46 42 35 31 26 26 26 25 25 24 24 24 26 32 35 34 31 26 24 24 24 21 21 24 31 32 29 27 27 31
52 54 63 54 51 50 55 55 60 58 64 62 57 47 49 47 42 36 32 29 26 26 26 27 29 30 36 40 38 34 32 28 30 34 41 39 42 40 35 30 26 26 31 34
49 54 58 58 56 58 47 66 68 66 63 59 69 51 51 51 49 45 39 35 31 28 29 33 37 42 43 38 36 35 36 37 46 67 79 82 66 55 45 35 30 26 36 39
57 60 70 66 62 70 58 68 65 66 65 63 55 56 38 46 48 51 49 44 40 38 37 40 45 45 43 41 38 33 35 47 66 97 90 80 72 65 54 48 33 33 41 40
64 74 67 71 76 74 69 68 71 71 66 52 54 63 34 48 48 48 49 51 53 50 46 45 48 48 48 47 42 48 58 96 98 91 91 80 74 84 65 58 30 30 33 38
89 72 85 84 75 74 69 63 62 67 68 54 63 65 43 42 42 46 47 51 51 54 55 58 57 55 55 60 60 67 83 86 85 83 84 84 85 88 86 76 38 35 36 30
88 71 84 86 78 85 85 84 81 90 77 58 60 53 51 51 50 44 45 50 54 58 62 61 57 57 58 65 72 89 80 65 81 99 79 98 93 88 69 74 47 51 43 31
75 69 81 87 92 90 79 76 70 78 86 83 72 64 59 48 38 32 38 55 61 75 77 66 60 65 81 82 100 99 99 99 100 99 100 94 81 90 100 78 62 66 43 33
94 75 68 70 76 80 80 86 87 82 76 70 58 57 57 45 49 50 52 66 77 84 75 69 73 74 100 100 100 93 88 100 99 99 99 83 80 99 90 95 88 59 43 37
93 86 63 63 60 68 72 77 78 68 69 65 68 59 53 70 72 82 85 76 70 66 79 78 72 74 86 88 97 99 92 87 100 100 99 99 86 94 98 85 68 57 38 31
91 85 76 61 71 76 78 87 84 68 66 75 80 56 69 65 74 100 99 92 88 84 84 79 83 74 82 97 100 100 95 90 100 96 87 92 100 100 98 91 85 62 51 42
96 95 85 72 77 98 98 80 66 65 65 64 84 61 89 96 75 99 100 100 98 100 100 88 84 75 92 95 100 100 100 96 75 72 96 100 100 98 84 85 74 65 50 44
100 100 96 89 76 84 100 96 83 99 100 100 100 94 77 94 100 100 98 100 100 92 94 89 80 84 100 99 100 100 96 83 74 67 99 87 80 68 62 71 66 59 54 53
100 99 100 100 100 100 100 99 100 100 100 100 100 100 99 100 100 100 100 99 93 93 97 87 81 72 79 58 78 74 70 58 57 64 58 50 40 40 53 57 82 78 61 44
100 98 100 97 100 100 100 94 100 100 100 100 100 98 100 99 100 100 100 99 98 91 58 45 32 30 27 30 43 52 48 66 89 55 46 36 34 57 90 90 89 58 49 59
100 100 100 100 100 100 99 85 100 100 93 98 98 100 95 88 80 84 90 90 56 40 25 20 32 32 30 39 37 40 65 65 58 51 47 46 60 77 94 96 67 54 82 89
98 100 100 100 98 98 86 90 86 78 75 91 100 96 94 95 97 92 80 47 33 27 23 27 27 31 32 35 45 64 44 40 52 42 50 91 95 94 100 90 69 88 84 96
27 26 29 49 62 62 60 43 41 60 61 71 100 100 88 66 44 37 32 41 38 30 29 30 36 44 53 52 43 45 45 37 35 70 85 99 100 100 99 79 93 84 86 93
54 58 87 67 63 57 45 39 37 47 43 54 97 64 46 33 23 23 23 28 35 38 57 64 57 57 59 59 73 59 74 81 89 86 98 100 100 85 85 93 89 95 96 100
54 51 50 48 53 50 44 48 26 25 24 27 30 45 26 24 25 24 40 52 77 81 77 73 64 52 52 54 68 77 78 73 74 87 100 79 56 94 90 93 96 94 98 91
42 33 32 39 42 32 41 49 45 29 23 22 24 62 85 92 97 90 88 96 84 96 96 77 48 64 75 89 72 78 82 82 93 100 64 61 94 84 88 100 92 98 84 83
45 31 23 22 22 41 52 58 64 75 85 80 98 100 100 92 90 89 84 76 75 65 51 54 61 74 83 88 81 72 80 92 91 56 69 97 76 87 100 87 93 82 86 70
43 25 13 17 27 25 43 59 75 82 73 77 82 86 85 85 98 91 75 90 76 46 51 64 77 86 82 73 65 65 90 93 69 74 100 96 100 100 91 89 84 90 84 69
36 19 19 14 21 15 17 39 56 73 84 97 100 97 100 97 68 51 42 48 56 53 40 48 63 74 75 64 70 93 95 87 90 100 100 100 100 98 86 84 76 90 84 70
27 22 24 22 25 18 14 12 13 50 93 100 100 100 100 77 36 29 28 31 34 30 38 54 63 77 84 92 98 91 86 86 99 100 100 100 100 93 85 85 77 75 79 86

GFSCGP_500_rhum_150.txt.gz
RH
47 42 45 58 54 49 56 57 55 56 49 41 36 34 32 30 30 35 39 38 36 34 32 33 33 32 28 26 26 26 25 24 24 23 23 27 26 26 26 25 25 28 27 27
44 41 52 51 51 48 46 47 48 60 59 49 44 40 40 40 40 42 43 43 44 42 39 36 34 31 28 29 30 29 28 29 29 30 29 27 26 25 27 28 31 32 34 35
54 47 54 50 48 44 48 46 52 55 70 62 53 41 44 45 42 42 46 48 48 44 42 40 37 35 32 31 32 34 34 34 35 34 34 33 33 33 39 48 42 40 41 42
54 52 56 57 53 54 49 63 60 60 63 60 64 37 36 46 52 52 51 49 44 39 42 43 42 42 42 38 39 40 43 44 41 42 42 40 41 45 60 76 54 55 51 48
58 61 69 66 63 71 51 60 64 61 60 59 52 61 32 40 47 60 60 54 49 49 48 48 50 50 50 48 48 49 52 54 53 49 47 49 48 51 74 77 50 57 54 58
60 59 56 65 74 75 74 68 73 79 74 63 59 72 33 45 45 47 51 53 57 56 55 53 52 55 56 57 59 60 61 57 52 47 44 45 49 71 83 78 62 41 50 50
78 57 64 69 69 85 91 93 91 84 82 61 71 78 52 48 42 44 50 51 51 54 56 54 54 59 61 63 66 66 59 55 54 59 69 82 78 97 97 84 73 59 57 61
84 59 66 65 77 96 97 100 89 100 86 69 78 61 49 54 58 56 53 55 58 61 61 58 64 68 71 76 74 68 64 69 68 76 100 88 96 96 82 83 88 72 56 68
83 65 64 80 90 96 89 91 95 99 94 99 71 58 54 60 72 65 64 57 59 62 62 63 80 91 94 88 81 84 88 92 98 100 98 100 92 95 91 96 90 85 73 59
91 69 77 72 84 85 84 93 96 93 94 97 74 74 63 65 70 55 54 54 56 55 69 81 94 100 100 100 100 98 90 72 79 98 95 82 83 85 87 83 72 71 85 94
93 86 74 79 83 81 88 90 92 97 97 95 85 78 67 75 68 64 56 56 58 72 70 78 100 100 100 100 100 100 100 91 78 75 73 77 84 82 95 95 98 100 99 96
84 79 69 70 78 88 98 99 100 100 92 100 100 89 90 82 74 69 63 67 71 75 58 82 100 100 100 100 100 100 100 93 82 87 92 85 83 75 83 100 100 100 82 64
79 94 84 87 98 100 100 98 99 100 99 100 99 88 100 96 90 84 85 71 73 85 89 92 100 100 100 100 100 100 100 100 92 88 93 94 74 69 86 83 62 48 41 54
70 95 100 100 98 94 100 99 100 100 100 100 100 96 100 76 96 98 90 95 98 85 100 100 100 99 93 99 100 100 100 94 87 59 67 64 54 58 58 51 44 37 37 60
100 82 100 100 100 100 100 100 100 100 100 100 100 99 93 100 100 100 100 100 100 100 100 97 87 87 99 100 100 84 60 33 37 47 50 43 68 100 78 43 40 40 50 72
100 95 100 99 100 100 100 91 100 100 100 100 100 94 100 100 100 100 97 98 99 98 97 98 99 94 89 77 53 41 54 50 50 45 34 51 59 50 51 40 52 69 92 98
100 100 100 94 100 100 97 83 100 100 100 100 96 96 99 100 100 100 94 98 92 88 91 95 89 88 71 55 51 57 50 44 37 38 51 39 32 35 35 70 94 100 100 98
100 100 100 98 99 99 86 84 97 100 100 100 98 93 98 95 82 78 85 86 84 73 74 72 59 56 50 64 72 58 48 50 52 45 42 39 43 48 72 91 100 100 100 96
65 61 82 90 93 83 70 70 66 66 71 76 73 75 80 90 89 91 89 77 66 58 40 25 28 52 52 60 59 57 54 53 70 64 61 72 70 83 92 93 100 97 94 98
68 50 52 59 66 80 62 58 58 64 66 57 60 61 74 90 86 83 87 74 44 22 20 19 32 44 51 70 68 63 57 63 100 76 78 74 67 79 99 98 64 94 90 87
64 79 94 94 72 48 27 28 32 40 40 47 49 45 36 34 40 61 47 32 23 25 30 46 58 81 89 80 70 51 63 57 67 70 73 80 89 100 100 67 90 79 72 95
62 78 54 50 41 20 20 16 21 30 40 50 52 50 44 57 57 81 73 66 71 70 75 88 88 79 80 74 72 61 73 84 91 81 80 91 99 94 64 90 71 78 98 96
65 71 83 62 45 17 10 10 10 13 29 52 63 73 78 80 94 100 90 98 91 85 78 73 71 72 63 58 61 72 76 83 92 79 84 98 84 64 97 84 91 96 94 89
51 100 90 68 32 17 14 13 14 15 12 14 17 51 78 85 90 80 86 79 85 71 62 80 68 42 39 44 72 84 88 77 67 80 98 93 80 88 100 91 99 91 86 82
64 65 61 52 31 24 19 20 18 19 15 14 16 21 78 97 92 98 100 68 44 36 34 36 36 35 36 37 47 53 76 81 86 100 100 95 87 100 99 97 98 92 88 87
49 51 61 38 30 34 24 24 29 29 16 17 18 17 71 96 100 100 88 44 42 34 24 34 50 42 42 54 57 72 93 100 99 96 95 94 99 100 100 100 100 91 90 88

GFSCGP_500_rhum_153.txt.gz
RH
57 60 73 68 53 45 41 32 33 49 53 40 37 31 42 38 34 31 28 26 30 41 42 42 44 43 40 38 36 34 32 30 29 30 32 32 31 32 33 36 36 34 35 34
48 48 64 69 62 50 44 40 38 47 50 32 32 25 33 37 40 40 40 40 44 47 50 54 56 54 51 47 44 42 40 38 36 33 33 35 36 38 40 43 42 42 40 37
49 48 56 59 60 57 50 48 52 49 51 37 30 22 27 37 38 40 43 49 52 56 58 62 60 60 58 53 51 48 46 46 45 43 43 44 46 48 50 49 48 43 43 46
52 54 62 66 60 68 58 60 52 49 48 44 45 19 26 34 38 42 48 51 56 60 63 66 67 65 60 56 54 53 53 52 50 50 51 53 53 56 56 51 47 44 42 44
61 58 65 66 70 80 68 69 65 60 60 55 47 44 16 23 37 52 54 55 61 66 70 69 63 64 64 61 60 59 57 56 57 57 58 61 64 61 54 53 50 50 60 66
70 74 68 75 83 86 77 73 81 82 78 58 59 67 17 35 34 44 53 61 64 68 70 67 63 67 66 66 65 63 61 60 62 66 69 68 62 60 57 58 78 81 73 81
88 83 81 75 71 75 80 76 86 94 100 63 75 71 29 34 34 42 48 55 58 63 66 73 73 69 68 68 69 66 64 69 72 77 76 70 64 64 63 82 96 86 67 60
73 69 74 70 71 86 81 86 72 96 92 70 75 46 43 51 48 50 58 64 64 64 70 71 69 72 77 73 69 77 88 85 85 84 80 76 95 93 98 98 58 64 66 56
82 72 75 82 82 86 86 90 95 100 91 95 63 46 49 52 57 58 62 65 65 66 69 73 71 67 87 94 95 96 99 98 96 100 95 88 88 84 67 54 62 55 60 64
91 83 78 82 94 95 91 97 99 99 92 88 57 67 69 74 72 64 62 62 67 66 68 69 72 85 95 99 89 90 84 91 99 99 98 98 79 73 67 73 85 79 87 78
75 71 67 71 86 100 97 93 98 100 94 92 76 70 60 73 68 63 70 68 76 81 84 83 85 94 98 98 99 98 95 98 98 92 95 95 81 88 86 82 79 70 61 70
74 65 55 57 65 71 86 98 98 99 93 100 100 86 82 88 84 70 73 75 86 98 97 92 91 100 100 100 100 100 100 100 94 81 82 81 98 93 77 73 74 58 44 49
62 77 72 75 100 87 95 94 94 97 99 98 100 94 100 100 99 95 94 92 94 96 87 71 94 100 100 100 100 100 100 100 100 89 80 86 88 74 51 49 47 44 65 75
94 96 100 100 100 84 89 99 100 100 100 100 98 97 100 100 100 95 90 85 96 93 63 73 99 100 100 100 100 95 100 100 98 98 88 78 48 42 51 41 35 47 94 80
100 87 100 100 100 100 100 98 100 100 100 98 99 97 94 100 100 98 100 98 98 99 100 100 100 100 100 100 100 99 100 99 97 96 88 64 50 45 39 37 61 74 49 35
86 86 100 97 100 100 96 78 99 100 100 100 100 81 100 100 100 98 100 100 100 100 100 100 100 100 96 94 97 100 100 100 94 82 70 54 41 43 48 44 37 31 29 51
98 94 98 100 100 100 88 76 94 100 100 100 94 89 98 100 100 96 99 100 100 97 99 96 95 96 90 87 89 95 92 78 61 66 60 47 48 50 46 49 67 65 71 76
94 95 96 97 100 99 89 75 84 100 100 100 95 84 81 84 84 81 83 89 90 85 94 90 88 81 66 61 62 55 56 58 65 58 53 53 52 80 88 82 76 69 72 80
75 84 82 85 76 78 64 72 74 70 73 75 77 80 78 73 66 64 78 78 88 100 99 96 96 74 44 34 28 36 52 71 70 68 68 64 91 100 88 65 81 82 86 95
58 64 63 83 94 88 54 66 67 57 56 44 43 46 53 61 63 66 68 63 61 62 59 60 54 35 23 27 39 48 61 83 81 72 71 88 100 100 70 77 89 96 98 76
51 48 61 86 100 78 68 42 37 36 26 18 20 26 33 43 49 56 64 51 33 44 53 35 31 40 53 77 99 98 97 93 86 76 81 92 79 78 90 75 94 100 73 87
59 62 78 89 100 73 50 31 16 15 11 11 11 22 24 30 61 74 71 54 80 80 84 100 100 100 100 100 93 88 92 99 72 68 85 98 100 100 89 87 100 75 88 87
58 70 76 69 63 66 56 46 11 13 12 13 15 13 13 16 19 52 73 77 90 99 100 100 100 87 79 78 82 91 81 62 62 72 98 100 100 92 92 99 94 93 100 92
59 75 80 84 47 65 81 45 14 16 17 18 25 25 21 17 19 37 82 88 96 98 98 100 91 68 62 78 79 52 56 46 58 78 93 95 89 100 100 100 100 100 100 100
67 76 63 46 42 70 72 38 24 18 20 23 17 16 17 24 24 31 97 100 100 100 91 52 38 33 30 31 34 35 39 39 54 64 84 97 100 100 100 100 100 100 100 100
51 51 60 57 87 80 55 36 25 23 24 22 21 24 22 25 27 26 99 100 100 81 57 64 44 38 48 62 80 80 75 90 92 93 100 100 100 100 100 100 100 100 100 100